Terug naar catalogus

MANDRAKE 2 BAKER

ActiefCommunicatiePO
NORAD 48908·PAYLOAD·🇺🇸 United States

Gelanceerd Jun 30, 2021 vanaf Cape Canaveral Space Force Station

Loading…

Volgende Passages (komende 24 uur)

TLE

VersSource: Space-Track

Epoch: Sep 14, 2026, 13:09 UTC

1 48908U 21059AF  26257.54824061  .00028174  00000-0  29839-3 0  9994
2 48908  97.6937  97.9432 0003595  37.1010 323.0497 15.64103003291249

Volg MANDRAKE 2 BAKER in realtime met AllMySat

Download on the App Store